Time,TemperatureF,DewpointF,PressureIn,WindDirection,WindDirectionDegrees,WindSpeedMPH,WindSpeedGustMPH,Humidity,HourlyPrecipIn,Conditions,Clouds,dailyrainin,SoftwareType,DateUTC
2013-01-27 00:27:00,43.5,37.1,30.06,WNW,294,10.0,14.0,78,0.00,,,0.00,Wunderground v.1.15,2013-01-27 08:27:00,
2013-01-27 00:57:00,43.1,37.0,30.06,WNW,285,8.0,8.0,79,0.00,,,0.00,Wunderground v.1.15,2013-01-27 08:57:00,
2013-01-27 01:27:00,42.4,37.3,30.06,WNW,299,8.0,8.0,82,0.00,,,0.00,Wunderground v.1.15,2013-01-27 09:27:00,
2013-01-27 01:57:00,42.2,36.8,30.06,WNW,300,8.0,12.0,81,0.00,,,0.00,Wunderground v.1.15,2013-01-27 09:57:00,
2013-01-27 02:27:00,42.4,36.7,30.07,WNW,292,9.0,10.0,80,0.00,,,0.00,Wunderground v.1.15,2013-01-27 10:27:00,
2013-01-27 02:57:00,42.5,36.1,30.07,WNW,291,10.0,11.0,78,0.00,,,0.00,Wunderground v.1.15,2013-01-27 10:57:00,
2013-01-27 03:28:00,42.2,35.2,30.07,WNW,288,10.0,12.0,76,0.00,,,0.00,Wunderground v.1.15,2013-01-27 11:28:00,
2013-01-27 03:57:00,41.5,35.5,30.07,West,281,7.0,9.0,79,0.00,,,0.00,Wunderground v.1.15,2013-01-27 11:57:00,
2013-01-27 04:28:00,40.8,35.4,30.08,WNW,282,7.0,8.0,81,0.00,,,0.00,Wunderground v.1.15,2013-01-27 12:28:00,
2013-01-27 04:57:00,40.4,35.0,30.08,WNW,298,7.0,7.0,81,0.00,,,0.00,Wunderground v.1.15,2013-01-27 12:57:00,
2013-01-27 05:27:00,40.1,34.4,30.08,West,280,7.0,8.0,80,0.00,,,0.00,Wunderground v.1.15,2013-01-27 13:27:00,
2013-01-27 05:57:00,39.4,34.1,30.09,NW,326,7.0,7.0,81,0.00,,,0.00,Wunderground v.1.15,2013-01-27 13:57:00,
2013-01-27 06:27:00,39.4,33.7,30.10,NNW,327,5.0,5.0,80,0.00,,,0.00,Wunderground v.1.15,2013-01-27 14:27:00,
2013-01-27 06:57:00,40.0,33.0,30.10,WNW,302,7.0,7.0,76,0.00,,,0.00,Wunderground v.1.15,2013-01-27 14:57:00,
2013-01-27 07:27:00,40.6,32.6,30.11,WNW,300,6.0,6.0,73,0.00,,,0.00,Wunderground v.1.15,2013-01-27 15:27:00,
2013-01-27 07:57:00,40.9,33.2,30.13,WNW,288,6.0,11.0,74,0.00,,,0.00,Wunderground v.1.15,2013-01-27 15:57:00,
2013-01-27 08:27:00,41.3,33.6,30.14,NW,307,10.0,13.0,74,0.00,,,0.00,Wunderground v.1.15,2013-01-27 16:27:00,
2013-01-27 08:57:00,42.9,34.1,30.15,WNW,297,9.0,9.0,71,0.00,,,0.00,Wunderground v.1.15,2013-01-27 16:57:00,
2013-01-27 09:27:00,44.0,35.2,30.16,West,277,8.0,8.0,71,0.00,,,0.00,Wunderground v.1.15,2013-01-27 17:27:00,
2013-01-27 09:57:00,45.9,33.6,30.16,WNW,298,5.0,5.0,62,0.00,,,0.00,Wunderground v.1.15,2013-01-27 17:57:00,
2013-01-27 10:27:00,46.5,35.0,30.17,NE,45,2.0,4.0,64,0.00,,,0.00,Wunderground v.1.15,2013-01-27 18:27:00,
2013-01-27 10:57:00,47.0,34.2,30.18,NW,312,5.0,5.0,61,0.00,,,0.00,Wunderground v.1.15,2013-01-27 18:57:00,
2013-01-27 11:27:00,47.7,35.3,30.18,WNW,296,6.0,6.0,62,0.00,,,0.00,Wunderground v.1.15,2013-01-27 19:27:00,
2013-01-27 11:57:00,48.6,35.3,30.17,NW,325,7.0,7.0,60,0.00,,,0.00,Wunderground v.1.15,2013-01-27 19:57:00,
2013-01-27 12:27:00,49.8,35.6,30.16,WNW,294,4.0,4.0,58,0.00,,,0.00,Wunderground v.1.15,2013-01-27 20:27:00,
2013-01-27 12:57:00,50.2,34.6,30.15,NW,307,7.0,8.0,55,0.00,,,0.00,Wunderground v.1.15,2013-01-27 20:57:00,
2013-01-27 13:27:00,51.6,35.9,30.14,WNW,291,5.0,8.0,55,0.00,,,0.00,Wunderground v.1.15,2013-01-27 21:27:00,
2013-01-27 13:57:00,51.6,35.9,30.13,WNW,293,3.0,3.0,55,0.00,,,0.00,Wunderground v.1.15,2013-01-27 21:57:00,
2013-01-27 14:27:00,51.9,37.6,30.13,WNW,294,8.0,8.0,58,0.00,,,0.00,Wunderground v.1.15,2013-01-27 22:27:00,
2013-01-27 14:58:00,51.2,36.9,30.13,NW,323,10.0,10.0,58,0.00,,,0.00,Wunderground v.1.15,2013-01-27 22:58:00,
2013-01-27 15:27:00,51.5,38.5,30.12,WNW,286,7.0,7.0,61,0.00,,,0.00,Wunderground v.1.15,2013-01-27 23:27:00,
2013-01-27 15:57:00,50.9,39.1,30.12,WNW,287,9.0,9.0,64,0.00,,,0.00,Wunderground v.1.15,2013-01-27 23:57:00,
2013-01-27 16:27:00,49.6,39.1,30.11,WNW,285,9.0,12.0,67,0.00,,,0.00,Wunderground v.1.15,2013-01-28 00:27:00,
2013-01-27 16:57:00,47.9,38.6,30.12,WNW,297,8.0,8.0,70,0.00,,,0.00,Wunderground v.1.15,2013-01-28 00:57:00,
2013-01-27 17:27:00,45.5,38.0,30.13,WNW,285,5.0,6.0,75,0.00,,,0.00,Wunderground v.1.15,2013-01-28 01:27:00,
2013-01-27 17:57:00,44.1,38.0,30.13,NW,313,5.0,5.0,79,0.00,,,0.00,Wunderground v.1.15,2013-01-28 01:57:00,
2013-01-27 18:27:00,43.7,37.9,30.14,WNW,298,8.0,8.0,80,0.00,,,0.00,Wunderground v.1.15,2013-01-28 02:27:00,
2013-01-27 18:57:00,43.0,37.6,30.14,WNW,298,8.0,8.0,81,0.00,,,0.00,Wunderground v.1.15,2013-01-28 02:57:00,
2013-01-27 19:27:00,42.6,37.2,30.14,WNW,292,7.0,7.0,81,0.00,,,0.00,Wunderground v.1.15,2013-01-28 03:27:00,
2013-01-27 19:57:00,42.1,37.0,30.15,WNW,300,7.0,8.0,82,0.00,,,0.00,Wunderground v.1.15,2013-01-28 03:57:00,
2013-01-27 20:27:00,41.4,36.3,30.16,WNW,295,7.0,8.0,82,0.00,,,0.00,Wunderground v.1.15,2013-01-28 04:27:00,
2013-01-27 20:57:00,40.6,35.8,30.15,NW,308,5.0,5.0,83,0.00,,,0.00,Wunderground v.1.15,2013-01-28 04:57:00,
2013-01-27 21:27:00,39.8,35.4,30.15,WNW,288,4.0,5.0,84,0.00,,,0.00,Wunderground v.1.15,2013-01-28 05:27:00,
2013-01-27 21:57:00,39.7,35.3,30.15,WNW,303,2.0,4.0,84,0.00,,,0.00,Wunderground v.1.15,2013-01-28 05:57:00,
2013-01-27 22:27:00,40.9,35.8,30.15,WNW,298,5.0,5.0,82,0.00,,,0.00,Wunderground v.1.15,2013-01-28 06:27:00,
2013-01-27 22:57:00,41.0,35.6,30.16,NW,315,7.0,7.0,81,0.00,,,0.00,Wunderground v.1.15,2013-01-28 06:57:00,
2013-01-27 23:27:00,41.8,34.8,30.16,WNW,287,7.0,8.0,76,0.00,,,0.00,Wunderground v.1.15,2013-01-28 07:27:00,
2013-01-27 23:57:00,42.7,34.3,30.17,North,3,6.0,6.0,72,0.00,,,0.00,Wunderground v.1.15,2013-01-28 07:57:00,